Location: Kelowna
(49.9000°N, 119.4830°W)
Time: 14:02:03
(UTC-08:00)

Tiangong 2 - Visible Passes

Search period start: 19 November 2018 00:00
Search period end: 29 November 2018 00:00
Orbit: 382 x 393 km, 42.8° (Epoch: 19 November)

Date Brightness Start Highest point End Pass type
(mag) Time Alt. Az. Time Alt. Az. Time Alt. Az.
24 Nov 4.2 06:43:10 10° S 06:44:40 13° SSE 06:46:10 10° SE visible
26 Nov 3.8 06:21:49 10° SSW 06:23:58 17° SSE 06:26:07 10° ESE visible
27 Nov 3.9 05:24:02 10° S 05:25:35 13° SSE 05:27:08 10° SE visible
28 Nov 3.4 06:00:50 10° SW 06:03:16 20° S 06:05:44 10° ESE visible
